Location: Auckland
(36.8670°S, 174.7670°E)
Time: 20:56:54
(UTC+12:00)

ARGOS - Pass Details

Date: 24 January 2019
Orbit: 819 x 835 km, 98.5° (Epoch: 19 April)

Event Time Altitude Azimuth Distance (km) Brightness Sun altitude
Rises 23:12:30 0° 175° (S) 3,387 7.0 -24.9°
Reaches altitude 10° 23:14:57 10° 180° (S) 2,446 6.3 -25.2°
Maximum altitude 23:20:05 46° 251° (WSW) 1,110 4.1 -25.8°
Enters shadow 23:23:23 21° 314° (NW) 1,786 4.8 -26.1°
